Date String (YYYY-MM-DD hh:mm:ss) UTC,Instrument flags,Ambient pressure (hPa),Sample flow (lpm),Bypass flow (lpm),Sample temperature (°C),Ambient temperature (°C),ASC tube jacket temperature (°C),LED temperature (°C),Box temperature (°C),Sample RH (%),Span deviation,Mass concentration (μg/m³),Mass concentration (μg/m³),Mass concentration (μg/m³)
DateTimeUTC,F1_M11,P_M11,Q1_M11,Q2_M11,T1_M11,T2_M11,T3_M11,T4_M11,T5_M11,U1_M11,ZSPAN_M11,X2_M11,X0_M11,X1_M11
2022-01-22 14:00:00,,0831.2,5.00,0.00,22.2,21.6,00.0,31.2,23.8,10.3,0000.0,0003.03,0003.11,0002.94
2022-01-22 14:01:00,,0831.2,5.00,0.00,22.1,21.5,00.0,31.2,23.8,10.3,0000.0,0003.05,0003.18,0002.95
2022-01-22 14:02:00,,0831.2,4.98,0.00,22.1,21.4,00.0,31.2,23.7,10.3,0000.0,0003.07,0003.22,0002.96
2022-01-22 14:03:00,,0831.2,5.01,0.00,22.1,21.3,00.0,31.2,23.7,10.3,0000.0,0003.08,0003.19,0002.98
2022-01-22 14:04:00,,0831.2,4.99,0.00,22.0,21.3,00.0,31.2,23.7,10.4,0000.0,0003.08,0003.18,0002.98
2022-01-22 14:05:00,,0831.2,5.02,0.00,22.0,21.4,00.0,31.2,23.7,10.4,0000.0,0003.11,0003.21,0003.00
2022-01-22 14:06:00,,0831.2,5.00,0.00,22.1,22.1,00.0,31.2,23.9,10.3,0000.0,0003.11,0003.19,0002.99
2022-01-22 14:07:00,,0831.2,4.98,0.00,22.2,22.8,00.0,31.2,24.1,10.2,0000.0,0003.12,0003.27,0003.00
2022-01-22 14:08:00,,0831.2,5.01,0.00,22.4,23.3,00.0,31.3,24.3,10.2,0000.0,0003.11,0003.25,0002.98
2022-01-22 14:09:00,,0831.2,5.00,0.00,22.4,23.1,00.0,31.3,24.4,10.1,0000.0,0003.12,0003.26,0002.98
2022-01-22 14:10:00,,0831.2,5.00,0.00,22.4,22.8,00.0,31.3,24.3,10.1,0000.0,0003.11,0003.25,0002.98
2022-01-22 14:11:00,,0831.2,4.99,0.00,22.4,22.5,00.0,31.3,24.2,10.1,0000.0,0003.12,0003.25,0002.98
2022-01-22 14:12:00,,0831.2,5.01,0.00,22.4,22.2,00.0,31.3,24.1,10.1,0000.0,0003.11,0003.22,0002.97
2022-01-22 14:13:00,,0831.2,5.00,0.00,22.3,22.0,00.0,31.3,24.0,10.1,0000.0,0003.10,0003.20,0002.97
2022-01-22 14:14:00,,0831.2,4.99,0.00,22.3,21.9,00.0,31.3,23.9,10.2,0000.0,0003.12,0003.23,0002.98
2022-01-22 14:15:00,,0831.2,5.01,0.00,22.2,21.7,00.0,31.3,23.9,10.2,0000.0,0003.12,0003.31,0002.99
2022-01-22 14:16:00,,0831.2,4.99,0.00,22.2,21.6,00.0,31.3,23.8,10.2,0000.0,0003.12,0003.34,0003.00
2022-01-22 14:17:00,,0831.2,5.02,0.00,22.1,21.5,00.0,31.2,23.7,10.2,0000.0,0003.13,0003.34,0003.00
2022-01-22 14:18:00,,0831.2,4.99,0.00,22.1,21.4,00.0,31.2,23.7,10.2,0000.0,0003.10,0003.26,0002.99
2022-01-22 14:19:00,,0831.2,5.00,0.00,22.1,21.3,00.0,31.2,23.6,10.3,0000.0,0003.12,0003.28,0003.01
2022-01-22 14:20:00,,0831.2,4.99,0.00,22.0,21.3,00.0,31.2,23.6,10.3,0000.0,0003.11,0003.27,0003.00
2022-01-22 14:21:00,,0831.2,5.01,0.00,22.0,21.2,00.0,31.2,23.6,10.3,0000.0,0003.12,0003.28,0003.01
2022-01-22 14:22:00,,0831.2,4.98,0.00,22.0,21.3,00.0,31.1,23.5,10.4,0000.0,0003.11,0003.25,0003.01
2022-01-22 14:23:00,,0831.1,5.01,0.00,22.1,21.9,00.0,31.2,23.8,10.3,0000.0,0003.09,0003.26,0003.00
2022-01-22 14:24:00,,0831.1,4.99,0.00,22.2,22.7,00.0,31.2,24.1,10.2,0000.0,0003.08,0003.33,0002.99
2022-01-22 14:25:00,,0831.1,5.00,0.00,22.3,22.9,00.0,31.2,24.3,10.1,0000.0,0003.05,0003.27,0002.96
2022-01-22 14:26:00,,0831.1,5.00,0.00,22.3,22.7,00.0,31.2,24.2,10.1,0000.0,0003.05,0003.25,0002.96
2022-01-22 14:27:00,,0831.2,5.00,0.00,22.3,22.4,00.0,31.2,24.1,10.2,0000.0,0003.04,0003.21,0002.95
2022-01-22 14:28:00,,0831.1,5.00,0.00,22.3,22.2,00.0,31.2,24.0,10.2,0000.0,0003.04,0003.22,0002.94
2022-01-22 14:29:00,,0831.2,4.99,0.00,22.2,21.9,00.0,31.2,23.9,10.2,0000.0,0003.03,0003.21,0002.93
2022-01-22 14:30:00,,0831.1,5.02,0.00,22.2,21.8,00.0,31.2,23.8,10.1,0000.0,0003.03,0003.23,0002.92
2022-01-22 14:31:00,,0831.1,4.99,0.00,22.2,21.6,00.0,31.2,23.8,10.1,0000.0,0003.02,0003.22,0002.92
2022-01-22 14:32:00,,0831.1,5.01,0.00,22.1,21.5,00.0,31.2,23.7,10.2,0000.0,0003.01,0003.21,0002.90
2022-01-22 14:33:00,,0831.1,4.98,0.00,22.1,21.4,00.0,31.2,23.7,10.3,0000.0,0003.02,0003.26,0002.90
2022-01-22 14:34:00,,0831.1,4.99,0.00,22.0,21.3,00.0,31.2,23.6,10.4,0000.0,0003.04,0003.24,0002.91
2022-01-22 14:35:00,,0831.2,5.00,0.00,22.0,21.2,00.0,31.1,23.6,10.5,0000.0,0003.02,0003.13,0002.91
2022-01-22 14:36:00,,0831.1,4.99,0.00,22.0,21.4,00.0,31.1,23.6,10.5,0000.0,0003.04,0003.17,0002.91
2022-01-22 14:37:00,,0831.2,5.00,0.00,22.1,22.2,00.0,31.2,23.9,10.4,0000.0,0003.02,0003.15,0002.91
2022-01-22 14:38:00,,0831.2,5.00,0.00,22.2,23.0,00.0,31.2,24.2,10.3,0000.0,0002.99,0003.08,0002.89
2022-01-22 14:39:00,,0831.2,5.01,0.00,22.4,23.1,00.0,31.2,24.3,10.3,0000.0,0002.95,0003.04,0002.86
2022-01-22 14:40:00,,0831.2,5.00,0.00,22.4,22.8,00.0,31.2,24.2,10.3,0000.0,0002.96,0003.05,0002.87
2022-01-22 14:41:00,,0831.2,5.00,0.00,22.3,22.5,00.0,31.2,24.1,10.4,0000.0,0002.97,0003.05,0002.87
2022-01-22 14:42:00,,0831.1,4.99,0.00,22.3,22.2,00.0,31.2,24.0,10.4,0000.0,0002.97,0003.06,0002.87
2022-01-22 14:43:00,,0831.1,5.01,0.00,22.3,22.0,00.0,31.2,24.0,10.4,0000.0,0002.97,0003.07,0002.86
2022-01-22 14:44:00,,0831.2,5.00,0.00,22.2,21.9,00.0,31.2,23.9,10.5,0000.0,0002.95,0003.03,0002.84
2022-01-22 14:45:00,,0831.2,4.99,0.00,22.2,21.8,00.0,31.2,23.9,10.6,0000.0,0002.94,0003.02,0002.84
2022-01-22 14:46:00,,0831.2,5.02,0.00,22.2,21.6,00.0,31.2,23.9,10.6,0000.0,0002.93,0003.11,0002.83
2022-01-22 14:47:00,,0831.2,4.99,0.00,22.1,21.5,00.0,31.2,23.8,10.6,0000.0,0002.95,0003.38,0002.85
2022-01-22 14:48:00,,0831.1,5.01,0.00,22.1,21.4,00.0,31.2,23.7,10.7,0000.0,0002.97,0003.42,0002.87
2022-01-22 14:49:00,,0831.2,4.99,0.00,22.1,21.4,00.0,31.2,23.7,10.8,0000.0,0003.00,0003.46,0002.89
2022-01-22 14:50:00,,0831.1,5.02,0.00,22.0,21.3,00.0,31.2,23.7,10.9,0000.0,0003.05,0003.51,0002.94
2022-01-22 14:51:00,,0831.1,4.99,0.00,22.0,21.3,00.0,31.2,23.6,10.9,0000.0,0003.08,0003.55,0002.95
2022-01-22 14:52:00,,0831.1,4.99,0.00,22.1,22.0,00.0,31.2,23.8,11.0,0000.0,0003.10,0003.55,0002.99
2022-01-22 14:53:00,,0831.1,5.01,0.00,22.2,22.9,00.0,31.2,24.2,11.0,0000.0,0003.13,0003.56,0003.03
2022-01-22 14:54:00,,0831.1,5.00,0.00,22.4,23.5,00.0,31.3,24.4,11.0,0000.0,0003.16,0003.60,0003.09
2022-01-22 14:55:00,,0831.2,5.00,0.00,22.5,23.2,00.0,31.3,24.4,10.9,0000.0,0003.20,0003.69,0003.14
2022-01-22 14:56:00,,0831.1,5.00,0.00,22.5,22.9,00.0,31.3,24.3,10.8,0000.0,0003.22,0003.71,0003.16
2022-01-22 14:57:00,,0831.2,5.00,0.00,22.4,22.6,00.0,31.3,24.2,10.8,0000.0,0003.23,0003.60,0003.18
2022-01-22 14:58:00,,0831.1,5.02,0.00,22.4,22.4,00.0,31.3,24.1,10.9,0000.0,0003.24,0003.35,0003.19
2022-01-22 14:59:00,,0831.1,5.00,0.00,22.4,22.2,00.0,31.3,24.1,11.0,0000.0,0003.25,0003.31,0003.20
